Voltar ao catálogo

DELTA 1 DEB

AtivoLEO
NORAD 7179·DEBRIS·🇺🇸 United States

Lançado Nov 6, 1973 de Vandenberg Space Force Base

Loading…

Próximas Passagens (próximas 24 horas)

TLE

AtualizadoSource: Space-Track

Época: Sep 14, 2026, 09:44 UTC

1 07179U 73086EQ  26257.40605648  .00020461  00000-0  80772-2 0  9992
2 07179 102.6051 326.7801 0036580 213.3407 208.2740 14.28716728502837

Acompanhe DELTA 1 DEB em tempo real com AllMySat

Download on the App Store